Location: Ravensburg
(47.7866°N, 9.6124°E)
Time: 13:43:04
(UTC+02:00)

AO-91 - Pass Details

Date: 20 March 2026
Orbit: 425 x 637 km, 97.5° (Epoch: 14 April)

Event Time Altitude Azimuth Distance (km) Brightness Sun altitude
Rises 22:00:03 0° 7° (N) 2,947 ? -32.3°
Reaches altitude 10° 22:02:22 10° 2° (N) 2,022 ? -32.5°
Enters shadow 22:04:10 23° 351° (N) 1,358 ? -32.7°
